Notices

What's New in latest Release from April 7th, 2021:

- Updated Glossary, including Speed of Maximum Gust, and Total Hourly Precipitation

- Updated national and regional climate services offices contacts and prices information

- Addition of station inventory lists for 1981-2010, 1971-2000, and 1961-1990 Normals.

If you haven't already, please take our survey and provide feedback about our website: https://eccc.sondage-survey.ca/f/LanguageSelection.aspx?s=442ca660-fcf1-47c0-95a9-59707d6fd709

Hourly Data Report for February 13, 2012

HALIFAX STANFIELD INT'L A
NOVA SCOTIA

44°52'48.060" N
63°30'00.050" W
145.40 m
8202250
71395
YHZ

Download Data

Hourly Data (February 2012)
Hourly Data Report for February 13, 2012
TIME
LST
Temp Definition
°C
Dew Point Definition
°C
Rel Hum Definition
%
Precip. Amount Definition
mm

Wind Dir Definition
10's deg

Wind Spd Definition
km/h
Visibility Definition
km
Stn Press Definition
kPa
Hmdx Definition


Wind Chill Definition


Weather Definition


00:00 -13.0 -15.1 84   29 26 8.0 98.19   -23 Snow Showers
01:00 -14.2 -16.3 84   30 20 9.7 98.24   -23 Snow Showers
02:00 -15.1 -17.0 85   29 19 9.7 98.31   -24 Snow Showers
03:00 -15.6 -17.4 86   28 17 9.7 98.39   -24 Snow Showers
04:00 -16.5 -18.6 84   27 20 12.9 98.48   -26 Snow Showers
05:00 -16.8 -19.0 83   27 17 19.3 98.58   -26 Snow Showers
06:00 -17.7 -19.9 83   26 19 24.1 98.65   -27 Mainly Clear
07:00 -17.9 -19.7 86   23 15 24.1 98.71   -26 Mainly Clear
08:00 -16.9 -18.6 87   23 19 24.1 98.78   -26 Mainly Clear
09:00 -14.8 -17.4 81   25 17 24.1 98.88   -23 Mainly Clear
10:00 -13.5 -16.3 79   28 13 24.1 98.90   -20 Mainly Clear
11:00 -11.7 -14.2 82   24 13 24.1 98.86   -18 Snow Showers
12:00 -9.9 -12.5 81   21 28 12.9 98.77   -19 Snow Showers
13:00 -8.5 -10.8 83   23 26 9.7 98.68   -17 Snow Showers
14:00 -7.8 -9.8 86   24 17 4.8 98.62   -14 Snow Showers
15:00 -7.4 -9.0 88   25 20 1.2 98.65   -15 Snow Showers
16:00 -9.1 -10.5 90   30 13 0.8 98.74   -15 Snow Showers,Freezing Fog
17:00 -9.6 -11.3 87   30 11 24.1 98.84   -15 Mainly Clear
18:00 -10.7 -12.4 87   28 9 24.1 98.92   -16 Mainly Clear
19:00 -11.1 -12.7 88   27 15 24.1 99.05   -18 Mainly Clear
20:00 -12.0 -13.7 87   25 6 24.1 99.19   -16 Clear
21:00 -11.7 -13.5 86   25 11 24.1 99.27   -18 Clear
22:00 -10.5 -12.3 87   25 13 24.1 99.35   -17 Clear
23:00 -10.5 -12.4 86   27 11 24.1 99.39   -16 Clear

Notes on Data Quality.

Legend

  • E = Estimated
  • M = Missing
  • NA = Not Available*
  • [empty] = Indicates an unobserved value
Date modified: